OpenBCM V1.13 (Linux)

Packet Radio Mailbox

DB0FHN

[JN59NK Nuernberg]

 Login: GUEST





  
I0OJJ  > AMSAT    27.08.26 22:48l 338 Lines 15960 Bytes #999 (0) @ WW
BID : 3IE_IR0EQ
Read: GUEST DJ6UX
Subj: 2Line Orbital Elements
Path: DB0FHN<DB0FFL<OE2XZR<OK1TOR<OK0NAG<DB0RKB<DK0WUE<HB9ON<IK7NXU<IK6IHL<
      IZ3LSV<I0OJJ<IR0EQ
Sent: 260808/0027z @:IR0EQ.ITA.EU [Rome] $:3IE_IR0EQ

>From i0ojj%ir0eq.ita.eu@i0ojj.ampr.org Sat Aug  8 02:31:40 2026
Received: from i0ojj.ampr.org by i0ojj.ampr.org (JNOS2.0q.1) with SMTP
	id AA17064188 ; Sat, 08 Aug 2026 02:31:40 +0200
Message-Id: <3IE_IR0EQ@i0ojj.bbs>
>From: i0ojj@ir0eq.ita.eu
X-JNOS-User-Port: Telnet   (i0ojj @ 44.27.18.9)  ->   Sending message

>From i0ojj@rgate.ampr.org Sat Aug  8 02:27:31 2026
Received: from rgate.ampr.org by rgate.ampr.org (JNOS2.0q.1) with SMTP
	id AA4550 ; Sat, 08 Aug 2026 02:27:31 +0200
Received: by rgate.ampr.org with SMTP
	id AA4547 ; Sat, 08 Aug 2026 02:27:02 +0200
Message-Id: <4548@rgate.ampr.org>
>From: i0ojj@rgate.ampr.org

SB KEPS @ AMSAT  $ORB26220.1
2Line Orbital Elements 26220.AMSAT

QST de W1STR

AMSAT Orbital Elements for Amateur Satellites in TLE Format
>From Orbital Analysis Office
New England Sci-Tech STEM Education Center
Natick MA August 08, 2026
To all radio amateurs


These element sets describe the orbits of various satellites 
in use by the amateur radio community. For details see:
www.amsat.org/keplerian-elements-formats/

A daily update of element sets is available at:
www.amsat.org/tle/daily-bulletin.txt
or without bulletin text:
www.amsat.org/tle/dailytle.txt


AO-07
1 07530U 74089B   26219.28221715 -.00000043  00000-0  18397-4 0  9991
2 07530 101.9915 233.0623 0012474  35.3537 335.9626 12.53698908366927
UO-11
1 14781U 84021B   26219.83467642  .00000803  00000-0  87063-4 0  9995
2 14781  97.8103 184.8487 0008190  24.7661 335.3949 14.90907685264822
LO-19
1 20442U 90005G   26219.81054291  .00000034  00000-0  28642-4 0  9999
2 20442  98.8844 243.0358 0012491  58.0239 302.2157 14.34136369909798
AO-27
1 22825U 93061C   26219.81319301  .00000018  00000-0  23732-4 0  9994
2 22825  98.6847 287.1991 0007471 314.4889  45.5682 14.30954162714384
FO-29
1 24278U 96046B   26219.84192025  .00000002  00000-0  40542-4 0  9990
2 24278  98.5203  61.6332 0349191 322.5537  35.1729 13.53276515480150
GO-32
1 25397U 98043D   26219.83331066  .00000022  00000-0  29652-4 0  9992
2 25397  99.0109 213.9036 0002345  77.5749 282.5691 14.24437238458685
ISS
1 25544U 98067A   26219.85990514  .00005515  00000-0  10677-3 0  9991
2 25544  51.6325  44.3665 0007338  23.4740 336.6582 15.49380334579760
NO-44
1 26931U 01043C   26219.84459639  .00000026  00000-0  40730-4 0  9993
2 26931  67.0506 110.6625 0005698 268.6927  91.3522 14.31973147297848
SO-50
1 27607U 02058C   26219.73932024  .00000639  00000-0  93064-4 0  9991
2 27607  64.5536 329.4718 0073742 253.0080 106.2936 14.83147667272104
CO-55
1 27844U 03031E   26219.59866374  .00000163  00000-0  89435-4 0  9993
2 27844  98.6756 227.5149 0010398  42.0298 318.1677 14.24363929198996
RS-22
1 27939U 03042A   26219.89715535  .00000526  00000-0  89150-4 0  9992
2 27939  98.3490  45.7250 0012492 102.6591   4.9654 14.73551501223164
CO-65
1 32785U 08021C   26219.88143505  .00002360  00000-0  14980-3 0  9996
2 32785  97.8321 202.4042 0007882 201.3660 158.7241 15.09894052992993
CO-66
1 32791U 08021J   26219.55118343  .00010279  00000-0  31074-3 0  9990
2 32791  97.7548 219.9726 0004849 114.1051 246.0699 15.34420442995163
RS-30
1 32953U 08025A   26219.84588472  .00000065  00000-0  39745-3 0  9995
2 32953  82.5072 323.3103 0019464 195.5940 164.4543 12.43181952826111
SRMSAT
1 37841U 11058D   26219.90040472  .00000331  00000-0  35717-4 0  9998
2 37841  19.9716 106.4544 0011736  53.6007  36.7368 14.11585425765132
ZACUBE-1
1 39417U 13066B   26219.86070987  .00002625  00000-0  20396-3 0  9993
2 39417  97.7989 182.4417 0043238  79.2200 281.3887 15.01482294688489
Delfi-N3xt
1 39428U 13066N   26219.76991845  .00004199  00000-0  36246-3 0  9998
2 39428  97.8296 140.0429 0074694  36.0434 324.5790 14.95659241682337
GOMX-1
1 39430U 13066Q   26219.79776115  .00000849  00000-0  13443-3 0  9997
2 39430  97.6463  57.0061 0126777 271.7969  86.8722 14.69592256677491
LO-74
1 39440U 13066AA  26219.83716259  .00000793  00000-0  77725-4 0  9998
2 39440  97.8925 169.0552 0056063 214.8387 144.9158 14.94093741684702
AO-73
1 39444U 13066AE  26219.88395141  .00004597  00000-0  28164-3 0  9998
2 39444  97.8313 192.4437 0036682  30.5194 329.8158 15.10142312687461
DTUSAT-2
1 40030U 14033W   26219.81019675  .00004016  00000-0  21509-3 0  9996
2 40030  98.0898 220.8457 0009410  65.9340 294.2874 15.15631453660507
LILACSAT-2
1 40908U 15049K   26219.84287931  .00011750  00000-0  18889-3 0  9993
2 40908  97.4616 258.6954 0008313  73.8840 286.3327 15.53132810603762
Lapan A3
1 41603U 16040E   26219.87935493  .00002171  00000-0  69484-4 0  9999
2 41603  97.1527 214.3464 0009982 178.8586 181.2681 15.33406232562731
CAS-2T
1 41847U 16066G   26219.83546434  .00000276  00000-0  48588-4 0  9992
2 41847  98.3795 294.9810 0340779 333.0426  25.3409 14.44800563512254
TechnoSat
1 42829U 17042E   26219.70690436  .00001874  00000-0  13515-3 0  9992
2 42829  97.4348  15.4313 0015996 278.6223  81.3191 15.05225947494458
AO-91
1 43017U 17073E   26219.59444050  .00005001  00000-0  21568-3 0  9995
2 43017  97.4637  85.7620 0149494 150.4656 210.5126 15.13376323473161
S-Net D
1 43186U 18014G   26219.78334097  .00002204  00000-0  11461-3 0  9991
2 43186  97.5300 124.2522 0007651 186.5851 173.5283 15.17107629466586
S-Net B
1 43187U 18014H   26219.79582536  .00002323  00000-0  12067-3 0  9991
2 43187  97.5306 124.2528 0008415 182.9222 177.1963 15.17076512466581
S-Net A
1 43188U 18014J   26219.71598103  .00002335  00000-0  12117-3 0  9990
2 43188  97.5315 124.3922 0008245 183.7413 176.3760 15.17115865466573
S-Net C
1 43189U 18014K   26219.73404174  .00002492  00000-0  12923-3 0  9996
2 43189  97.5332 124.4929 0009825 178.0544 182.0730 15.17066533465126
Ten-Koh
1 43677U 18084G   26219.85100963  .00000463  00000-0  39232-4 0  9996
2 43677  98.0752  54.3960 0008309 313.3245  46.7285 15.03126190423928
PO-101
1 43678U 18084H   26219.84940287  .00000692  00000-0  59939-4 0  9997
2 43678  98.1222  58.3285 0011146   6.8240 353.3132 15.00635595423961
QO-100
1 43700U 18090A   26219.80112911  .00000143  00000-0  00000+0 0  9992
2 43700   0.0103 101.5625 0002366  74.6782  94.2568  1.00269450 28192
MinXSS-2
1 43758U 18099A   26219.78248814  .00024971  00000-0  43779-3 0  9992
2 43758  97.4494 297.7046 0007647  86.1060 274.1065 15.50530359422117
AO-95
1 43770U 18099N   26219.64209743  .00006363  00000-0  23728-3 0  9996
2 43770  97.4349 279.7241 0009385 156.2063 203.9612 15.27738322421076
SNUSat 2
1 43782U 18099AA  26219.67320640  .00004211  00000-0  18405-3 0  9998
2 43782  97.4027 272.2803 0011841 113.2028 247.0457 15.22573782420862
SnugLite
1 43784U 18099AC  26219.69183362  .00006063  00000-0  22308-3 0  9994
2 43784  97.3836 273.4909 0004656 105.5671 254.6083 15.28226452421185
ITASat 1
1 43786U 18099AE  26219.65551045  .00003303  00000-0  15781-3 0  9990
2 43786  97.3996 270.1496 0012951 165.2151 194.9465 15.19645261420724
EAGLET 1
1 43790U 18099AJ  26219.63477190  .00002050  00000-0  11863-3 0  9996
2 43790  97.4198 267.9417 0011685 159.8364 200.3331 15.13290178420113
ESEO
1 43792U 18099AL  26219.66468693  .00000718  00000-0  55516-4 0  9992
2 43792  97.3936 254.8451 0012632 151.4310 208.7611 15.04378999419545
JO-97
1 43803U 18099AX  26219.67855093  .00009404  00000-0  27694-3 0  9996
2 43803  97.4091 282.7376 0007154  92.4195 267.7868 15.35244309421526
Suomi 100
1 43804U 18099AY  26219.71141249  .00007084  00000-0  24945-3 0  9991
2 43804  97.4154 279.9424 0011434  98.9587 261.2948 15.29562002421299
ISAT
1 43879U 18111D   26219.76815257  .00114189  00000-0  69477-3 0  9994
2 43879  97.5822 159.3793 0009350 111.6115 248.6147 15.77075345419264
UWE-4
1 43880U 18111E   26219.74484492  .00021290  00000-0  39045-3 0  9995
2 43880  97.5826 150.6295 0009470 124.3160 235.8988 15.49265095418751
Sparrow
1 43881U 18111F   26219.81938073  .00628555  19361-3  92419-3 0  9997
2 43881  97.6009 166.4711 0011460 151.0111 209.1807 16.04947562419550
Prox-1
1 44339U 19036A   26219.85007985  .00006624  00000-0  61375-3 0  9997
2 44339  23.9937 128.8292 0005848 272.8827  87.1004 14.91737780381190
Taurus 1
1 44530U 19059C   26219.82368177  .00003327  00000-0  53126-3 0  9997
2 44530  98.6467  27.8884 0009328 144.1458 216.0375 14.72590382366240
TO-108
1 44881U 19093C   26219.80680010  .00000070  00000-0  13893-4 0  9995
2 44881  97.7495 290.7736 0012069 278.7282  81.2567 14.86589048359083
RS-44
1 44909U 19096E   26219.76025950  .00000008  00000-0 -14907-4 0  9999
2 44909  82.5234 305.4411 0217825  24.0827 337.0275 12.79748749308947
SALSAT
1 46495U 20068K   26219.54610608  .00004102  00000-0  14190-3 0  9999
2 46495  97.8877 225.7683 0011303 118.3295 241.9085 15.30472662323212
CSS (TIANHE-1)
1 48274U 21035A   26219.79718575  .00011389  00000-0  14685-3 0  9994
2 48274  41.4698   8.6999 0001068 266.1781  93.8935 15.58880806301220
TeikyoSat 4
1 49396U 21102B   26219.82306676  .00001248  00000-0  81176-4 0  9997
2 49396  97.3657 247.2990 0013638 112.5766 247.6908 15.09671858260512
Z-Sat
1 49399U 21102E   26219.86273071  .00001101  00000-0  56172-4 0  9992
2 49399  97.3309 253.6206 0018278  69.1777 291.1413 15.18627691261280
KOSEN 1
1 49402U 21102H   26219.83870682  .00003837  00000-0  14487-3 0  9995
2 49402  97.3161 261.0059 0014107  32.2669 327.9431 15.27522999261900
HO-113
1 50466U 21131B   26219.84051642  .00000226  00000-0  83383-4 0  9998
2 50466  98.4976 311.9515 0003114 317.2847  42.8099 14.41399969242557
SNUGLITE 2
1 52899U 22065F   26219.61901947  .00000545  00000-0  11225-3 0  9993
2 52899  98.2268   4.3798 0006716 213.7470 146.3306 14.64431917218526
UmKA 1 (RS40S)
1 57172U 23091G   26219.80019899  .00002942  00000-0  13433-3 0  9995
2 57172  97.5015 278.3068 0010939 303.0791  56.9394 15.21349877171855
